| time (UTC) | temp F | wind direction | speed knots | gust knots | rain 1hr in | rain 24hr in | rain mn in | humidity % | barometer mb |
| 20260507101544 | 49 | 133 | 0.0 | 0.0 | 0.00 | 0.00 | 0.00 | 52 | 1012.6 |
| 20260507100045 | 50 | 133 | 0.0 | 0.0 | 0.00 | 0.00 | 0.00 | 51 | 1012.6 |
| 20260507094536 | 51 | 133 | 0.0 | 1.7 | 0.00 | 0.00 | 0.00 | 50 | 1012.5 |
| 20260507093038 | 51 | 133 | 0.9 | 2.6 | 0.00 | 0.00 | 0.00 | 49 | 1012.4 |
| 20260507091534 | 52 | 133 | 0.9 | 2.6 | 0.00 | 0.00 | 0.00 | 47 | 1012.6 |
| 20260507090026 | 54 | 133 | 0.0 | 1.7 | 0.00 | 0.00 | 0.00 | 45 | 1012.7 |
| 20260507084523 | 56 | 133 | 0.0 | 1.7 | 0.00 | 0.00 | 0.00 | 43 | 1012.7 |
| 20260507083022 | 56 | 132 | 0.9 | 3.5 | 0.00 | 0.00 | 0.00 | 42 | 1012.9 |
| 20260507081521 | 56 | 153 | 0.9 | 2.6 | 0.00 | 0.00 | 0.00 | 43 | 1012.8 |
| 20260507080018 | 57 | 157 | 0.9 | 4.3 | 0.00 | 0.00 | 0.00 | 42 | 1012.9 |
| 20260507074515 | 58 | 267 | 0.0 | 2.6 | 0.00 | 0.00 | 0.00 | 41 | 1012.9 |
| 20260507073010 | 60 | 263 | 0.9 | 3.5 | 0.00 | 0.00 | 0.00 | 38 | 1012.7 |
| 20260507071524 | 61 | 251 | 2.6 | 7.8 | 0.00 | 0.00 | 0.00 | 38 | 1012.5 |
| 20260507070010 | 61 | 258 | 4.3 | 7.8 | 0.00 | 0.00 | 0.00 | 37 | 1012.5 |
| 20260507064504 | 61 | 213 | 3.5 | 7.0 | 0.00 | 0.00 | 0.00 | 37 | 1012.5 |
| 20260507063004 | 62 | 275 | 3.5 | 7.0 | 0.00 | 0.00 | 0.00 | 37 | 1012.5 |
| 20260507061503 | 62 | 232 | 3.5 | 7.8 | 0.00 | 0.00 | 0.00 | 36 | 1012.3 |
| 20260507060003 | 62 | 246 | 2.6 | 7.0 | 0.00 | 0.00 | 0.00 | 36 | 1012.3 |
| 20260507054504 | 62 | 228 | 4.3 | 7.8 | 0.00 | 0.00 | 0.00 | 36 | 1012.2 |
| 20260507053003 | 62 | 211 | 2.6 | 8.7 | 0.00 | 0.00 | 0.00 | 36 | 1012.3 |
| 20260507051501 | 62 | 225 | 3.5 | 8.7 | 0.00 | 0.00 | 0.00 | 35 | 1012.2 |
| 20260507050108 | 63 | 264 | 4.3 | 7.8 | 0.00 | 0.00 | 0.00 | 35 | 1012.1 |
| 20260507044600 | 63 | 267 | 4.3 | 10.4 | 0.00 | 0.00 | 0.00 | 35 | 1012.0 |
| 20260507043100 | 63 | 179 | 4.3 | 9.6 | 0.00 | 0.00 | 0.00 | 35 | 1011.8 |
| 20260507041559 | 63 | 267 | 7.0 | 10.4 | 0.00 | 0.00 | 0.00 | 34 | 1011.6 |
| 20260507040109 | 64 | 272 | 5.2 | 8.7 | 0.00 | 0.00 | 0.00 | 34 | 1011.4 |
| 20260507034558 | 64 | 258 | 7.8 | 12.2 | 0.00 | 0.00 | 0.00 | 33 | 1011.3 |
| 20260507033057 | 65 | 259 | 5.2 | 9.6 | 0.00 | 0.00 | 0.00 | 33 | 1011.1 |
| 20260507031557 | 65 | 260 | 7.0 | 13.0 | 0.00 | 0.00 | 0.00 | 32 | 1010.9 |
| 20260507030057 | 66 | 225 | 5.2 | 10.4 | 0.00 | 0.00 | 0.00 | 32 | 1010.7 |
| 20260507024603 | 66 | 267 | 5.2 | 11.3 | 0.00 | 0.00 | 0.00 | 31 | 1010.4 |
| 20260507023055 | 67 | 260 | 4.3 | 9.6 | 0.00 | 0.00 | 0.00 | 30 | 1010.4 |
| 20260507021554 | 68 | 256 | 5.2 | 8.7 | 0.00 | 0.00 | 0.00 | 29 | 1010.2 |
| 20260507020054 | 70 | 273 | 5.2 | 13.0 | 0.00 | 0.00 | 0.00 | 28 | 1010.0 |
| 20260507014602 | 72 | 161 | 0.9 | 9.6 | 0.00 | 0.00 | 0.00 | 26 | 1009.8 |
| 20260507013053 | 74 | 85 | 7.0 | 10.4 | 0.00 | 0.00 | 0.00 | 25 | 1009.6 |
| 20260507011552 | 75 | 290 | 0.0 | 9.6 | 0.00 | 0.00 | 0.00 | 23 | 1009.6 |
| 20260507004601 | 76 | 311 | 2.6 | 7.8 | 0.00 | 0.00 | 0.00 | 22 | 1009.7 |
| 20260507003051 | 77 | 317 | 0.0 | 4.3 | 0.00 | 0.00 | 0.00 | 21 | 1009.5 |
| 20260507001552 | 77 | 278 | 3.5 | 8.7 | 0.00 | 0.00 | 0.00 | 22 | 1009.6 |
| 20260507000047 | 76 | 348 | 2.6 | 7.8 | 0.00 | 0.00 | 0.00 | 22 | 1009.6 |
| 20260506234548 | 75 | 269 | 0.9 | 7.8 | 0.00 | 0.00 | 0.00 | 23 | 1009.6 |
| 20260506233049 | 77 | 26 | 0.0 | 7.8 | 0.00 | 0.00 | 0.00 | 20 | 1009.6 |
| 20260506231543 | 76 | 319 | 3.5 | 7.8 | 0.00 | 0.00 | 0.00 | 21 | 1009.7 |
| 20260506230041 | 77 | 297 | 2.6 | 10.4 | 0.00 | 0.00 | 0.00 | 22 | 1009.8 |
| 20260506224538 | 77 | 225 | 0.0 | 7.8 | 0.00 | 0.00 | 0.00 | 21 | 1009.9 |
| 20260506223035 | 77 | 268 | 2.6 | 9.6 | 0.00 | 0.00 | 0.00 | 23 | 1010.1 |
| 20260506221533 | 77 | 96 | 4.3 | 9.6 | 0.00 | 0.00 | 0.00 | 20 | 1010.4 |
| 20260506220038 | 77 | 319 | 3.5 | 11.3 | 0.00 | 0.00 | 0.00 | 23 | 1010.7 |
| 20260506214530 | 76 | 295 | 0.0 | 6.1 | 0.00 | 0.00 | 0.00 | 22 | 1011.0 |
| 20260506213031 | 76 | 309 | 2.6 | 8.7 | 0.00 | 0.00 | 0.00 | 22 | 1011.4 |
| 20260506211528 | 74 | 246 | 0.9 | 7.8 | 0.00 | 0.00 | 0.00 | 24 | 1011.5 |
| 20260506210024 | 75 | 303 | 2.6 | 8.7 | 0.00 | 0.00 | 0.00 | 22 | 1011.7 |
| 20260506204522 | 74 | 312 | 2.6 | 11.3 | 0.00 | 0.00 | 0.00 | 23 | 1012.0 |
| 20260506203021 | 74 | 282 | 6.1 | 17.4 | 0.00 | 0.00 | 0.00 | 24 | 1012.0 |
| 20260506201518 | 74 | 19 | 1.7 | 7.8 | 0.00 | 0.00 | 0.00 | 24 | 1012.3 |
| 20260506200020 | 74 | 42 | 1.7 | 7.8 | 0.00 | 0.00 | 0.00 | 24 | 1012.5 |
| 20260506194513 | 72 | 313 | 2.6 | 11.3 | 0.00 | 0.00 | 0.00 | 25 | 1012.6 |
| 20260506193012 | 72 | 315 | 4.3 | 10.4 | 0.00 | 0.00 | 0.00 | 26 | 1012.7 |
| 20260506191510 | 72 | 50 | 2.6 | 8.7 | 0.00 | 0.00 | 0.00 | 26 | 1012.7 |
| 20260506190012 | 71 | 299 | 2.6 | 8.7 | 0.00 | 0.00 | 0.00 | 26 | 1012.9 |
| 20260506184505 | 69 | 45 | 1.7 | 7.8 | 0.00 | 0.00 | 0.00 | 27 | 1013.0 |
| 20260506183006 | 69 | 295 | 1.7 | 7.8 | 0.00 | 0.00 | 0.00 | 27 | 1013.3 |
| 20260506181501 | 68 | 332 | 1.7 | 7.0 | 0.00 | 0.00 | 0.00 | 28 | 1013.3 |
| 20260506180116 | 68 | 5 | 1.7 | 9.6 | 0.00 | 0.00 | 0.00 | 28 | 1013.4 |
| 20260506174557 | 67 | 9 | 0.9 | 8.7 | 0.00 | 0.00 | 0.00 | 29 | 1013.5 |
| 20260506173129 | 67 | 271 | 3.5 | 7.8 | 0.00 | 0.00 | 0.00 | 30 | 1013.6 |
| 20260506171552 | 65 | 304 | 1.7 | 7.8 | 0.00 | 0.00 | 0.00 | 31 | 1013.6 |
| 20260506170050 | 64 | 317 | 2.6 | 5.2 | 0.00 | 0.00 | 0.00 | 33 | 1013.5 |
| 20260506164549 | 63 | 244 | 1.7 | 7.8 | 0.00 | 0.00 | 0.00 | 34 | 1013.5 |
| 20260506163052 | 62 | 309 | 3.5 | 7.8 | 0.00 | 0.00 | 0.00 | 35 | 1013.6 |
| 20260506161553 | 62 | 305 | 3.5 | 8.7 | 0.00 | 0.00 | 0.00 | 34 | 1013.3 |
| 20260506160042 | 61 | 297 | 2.6 | 5.2 | 0.00 | 0.00 | 0.00 | 35 | 1013.3 |
| 20260506154539 | 60 | 270 | 2.6 | 7.0 | 0.00 | 0.00 | 0.00 | 37 | 1013.1 |
| 20260506153037 | 59 | 321 | 0.9 | 2.6 | 0.00 | 0.00 | 0.00 | 38 | 1013.1 |
| 20260506151537 | 59 | 328 | 1.7 | 5.2 | 0.00 | 0.00 | 0.00 | 38 | 1013.2 |
| 20260506150033 | 59 | 49 | 0.9 | 5.2 | 0.00 | 0.00 | 0.00 | 40 | 1013.2 |
| 20260506144529 | 57 | 104 | 0.0 | 2.6 | 0.00 | 0.00 | 0.00 | 44 | 1013.1 |
| 20260506143029 | 57 | 110 | 0.9 | 2.6 | 0.00 | 0.00 | 0.00 | 45 | 1013.1 |
| 20260506141531 | 55 | 110 | 0.0 | 2.6 | 0.00 | 0.00 | 0.00 | 47 | 1013.1 |
| 20260506140020 | 53 | 202 | 0.9 | 2.6 | 0.00 | 0.00 | 0.00 | 49 | 1013.0 |
| 20260506134516 | 50 | 202 | 0.0 | 0.0 | 0.00 | 0.00 | 0.00 | 54 | 1013.0 |
| 20260506133017 | 46 | 202 | 0.0 | 0.9 | 0.00 | 0.00 | 0.00 | 63 | 1012.8 |
| 20260506131513 | 42 | 201 | 0.0 | 0.9 | 0.00 | 0.00 | 0.00 | 67 | 1012.6 |
| 20260506130016 | 41 | 201 | 0.0 | 0.0 | 0.00 | 0.00 | 0.00 | 66 | 1012.4 |
| 20260506124509 | 41 | 202 | 0.0 | 0.9 | 0.00 | 0.00 | 0.00 | 66 | 1012.4 |
| 20260506123008 | 42 | 209 | 0.0 | 1.7 | 0.00 | 0.00 | 0.00 | 65 | 1012.0 |
| 20260506121505 | 42 | 209 | 0.0 | 2.6 | 0.00 | 0.00 | 0.00 | 66 | 1011.7 |
| 20260506120002 | 41 | 209 | 0.9 | 2.6 | 0.00 | 0.00 | 0.00 | 65 | 1011.5 |
| 20260506114558 | 43 | 209 | 0.0 | 1.7 | 0.00 | 0.00 | 0.00 | 62 | 1011.6 |
| 20260506113059 | 44 | 209 | 0.9 | 2.6 | 0.00 | 0.00 | 0.00 | 59 | 1011.5 |
| 20260506111555 | 46 | 209 | 0.9 | 2.6 | 0.00 | 0.00 | 0.00 | 56 | 1011.3 |
| 20260506110052 | 48 | 209 | 0.0 | 2.6 | 0.00 | 0.00 | 0.00 | 56 | 1011.2 |
| 20260506104556 | 49 | 237 | 0.0 | 2.6 | 0.00 | 0.00 | 0.00 | 53 | 1011.1 |
| 20260506103050 | 49 | 251 | 1.7 | 5.2 | 0.00 | 0.00 | 0.00 | 54 | 1010.9 |